This demonstration page uses our WeatherBlox Daily Observations layout. Learn more.

Left ArrowRight Arrow

39.95238, -75.16362

Hourly Observations for May 29, 2015

Temp ( °F °C ) Dew Point ( °F °C ) Humidity (%) Winds ( mph kmh ) Pressure ( in mb ) Visibility ( mi km ) Precip ( " mm )
12:54 am 00:54 Mostly Clear 76 24.4 52 11.1 43 43 NE 13 20 30.23 1024 10 16 0.00 0.00
1:54 am 01:54 Mostly Clear 73 22.8 53 11.7 50 50 NE 10 17 30.24 1024 10 16 0.00 0.00
2:54 am 02:54 Clear 72 22.2 53 11.7 52 52 NE 10 17 30.25 1024 10 16 0.00 0.00
3:54 am 03:54 Partly Cloudy 70 21.1 54 12.2 57 57 NE 7 11 30.24 1024 10 16 0.00 0.00
4:54 am 04:54 Mostly Clear 68 20 55 12.8 63 63 ENE 8 13 30.25 1025 10 16 0.00 0.00
5:54 am 05:54 Partly Cloudy 66 18.9 55 12.8 68 68 ENE 7 11 30.27 1025 10 16 0.00 0.00
6:54 am 06:54 Mostly Sunny 69 20.6 55 12.8 61 61 ENE 10 17 30.28 1025 10 16 0.00 0.00
7:54 am 07:54 Mostly Sunny 72 22.2 55 12.8 55 55 ENE 8 13 30.29 1026 10 16 0.00 0.00
8:54 am 08:54 Partly Cloudy 74 23.3 56 13.3 54 54 E 10 17 30.29 1026 10 16 0.00 0.00
9:54 am 09:54 Partly Cloudy 76 24.4 56 13.3 50 50 E 9 15 30.29 1026 10 16 0.00 0.00
10:54 am 10:54 Partly Cloudy 78 25.6 57 13.9 48 48 E 9 15 30.29 1026 10 16 0.00 0.00
11:54 am 11:54 Partly Cloudy 81 27.2 58 14.4 45 45 E 6 9 30.27 1025 10 16 0.00 0.00
12:54 pm 12:54 Mostly Sunny 83 28.3 58 14.4 43 43 NE 5 7 30.26 1025 10 16 0.00 0.00
1:54 pm 13:54 Mostly Sunny 83 28.3 59 15 44 44 NE 5 7 30.25 1024 10 16 0.00 0.00
2:54 pm 14:54 Partly Cloudy 86 30 61 16.1 43 43 VRB 3 6 30.23 1024 10 16 0.00 0.00
3:54 pm 15:54 Partly Cloudy 86 30 61 16.1 43 43 VRB 3 6 30.21 1023 10 16 0.00 0.00
4:54 pm 16:54 Partly Cloudy 86 30 62 16.7 45 45 undefined N/A 30.19 1023 10 16 0.00 0.00
5:09 pm 17:09 Partly Cloudy 86 30 62 16.7 45 45 S 6 9 30.18 1022 10 16 0.00 0.00
5:54 pm 17:54 Mostly Cloudy 86 30 65 18.3 49 49 SW 7 11 30.18 1022 10 16 0.00 0.00
6:54 pm 18:54 Mostly Cloudy 82 27.8 64 17.8 55 55 SSE 8 13 30.19 1022 10 16 0.00 0.00
7:54 pm 19:54 Mostly Cloudy 81 27.2 66 18.9 61 61 S 9 15 30.20 1023 10 16 0.00 0.00
8:54 pm 20:54 Mostly Cloudy 77 25 65 18.3 66 66 SSE 6 9 30.21 1023 10 16 0.00 0.00
9:54 pm 21:54 Mostly Cloudy 74 23.3 64 17.8 71 71 SE 3 6 30.23 1024 10 16 0.00 0.00
10:54 pm 22:54 Mostly Cloudy 73 22.8 63 17.2 71 71 S 5 7 30.23 1024 10 16 0.00 0.00
11:54 pm 23:54 Mostly Cloudy 72 22.2 62 16.7 71 71 S 8 13 30.22 1023 10 16 0.00 0.00

Powered by AerisWeather